This demonstration page uses our WeatherBlox Daily Observations layout. Learn more.

Left ArrowRight Arrow

31.84235, -102.49876

Hourly Observations for March 29, 2015

Temp ( °F °C ) Dew Point ( °F °C ) Humidity (%) Winds ( mph kmh ) Pressure ( in mb ) Visibility ( mi km ) Precip ( " mm )
12:53 am 00:53 Clear 67 19.4 36 2.2 32 32 SSW 16 26 29.90 1012 10 16 0.00 0.00
1:53 am 01:53 Clear 66 18.9 35 1.7 32 32 SSW 16 26 29.90 1013 10 16 0.00 0.00
2:53 am 02:53 Clear 64 17.8 36 2.2 35 35 SSW 13 20 29.89 1012 10 16 0.00 0.00
3:53 am 03:53 Clear 63 17.2 36 2.2 37 37 SSW 13 20 29.87 1012 10 16 0.00 0.00
4:53 am 04:53 Clear 59 15 37 2.8 44 44 SSW 8 13 29.86 1011 10 16 0.00 0.00
5:53 am 05:53 Clear 58 14.4 38 3.3 48 48 SSW 9 15 29.87 1012 10 16 0.00 0.00
6:53 am 06:53 Clear 55 12.8 38 3.3 53 53 SSW 8 13 29.89 1012 10 16 0.00 0.00
7:53 am 07:53 Sunny 54 12.2 39 3.9 57 57 SW 7 11 29.91 1013 10 16 0.00 0.00
8:53 am 08:53 Sunny 58 14.4 40 4.4 51 51 W 7 11 29.95 1014 10 16 0.00 0.00
9:53 am 09:53 Sunny 66 18.9 40 4.4 39 39 W 8 13 29.96 1015 10 16 0.00 0.00
10:53 am 10:53 Sunny 75 23.9 38 3.3 26 26 WNW 6 9 29.96 1015 10 16 0.00 0.00
11:53 am 11:53 Sunny 82 27.8 34 1.1 18 18 NW 8 13 29.95 1014 10 16 0.00 0.00
12:53 pm 12:53 Sunny 89 31.7 32 0 13 13 N 16 26 29.93 1014 10 16 0.00 0.00
1:53 pm 13:53 Sunny 90 32.2 27 -2.8 10 10 N 9 15 29.92 1013 10 16 0.00 0.00
2:53 pm 14:53 Sunny 90 32.2 27 -2.8 10 10 N 16 26 29.92 1013 10 16 0.00 0.00
3:53 pm 15:53 Sunny 89 31.7 27 -2.8 11 11 N 13 20 29.91 1013 10 16 0.00 0.00
4:53 pm 16:53 Sunny 90 32.2 27 -2.8 10 10 N 8 13 29.91 1013 10 16 0.00 0.00
5:53 pm 17:53 Sunny 88 31.1 30 -1.1 12 12 NNE 12 19 29.91 1013 10 16 0.00 0.00
6:53 pm 18:53 Sunny 86 30 33 0.6 15 15 NE 17 28 29.93 1014 10 16 0.00 0.00
7:53 pm 19:53 Mostly Sunny 77 25 35 1.7 22 22 ENE 17 28 29.99 1016 8 13 0.00 0.00
8:53 pm 20:53 Clear 71 21.7 36 2.2 28 28 ENE 15 24 30.02 1017 10 16 0.00 0.00
9:53 pm 21:53 Clear 68 20 38 3.3 33 33 ENE 14 22 30.04 1017 10 16 0.00 0.00
10:53 pm 22:53 Clear 67 19.4 38 3.3 35 35 ENE 14 22 30.04 1017 10 16 0.00 0.00
11:53 pm 23:53 Clear 65 18.3 37 2.8 36 36 E 14 22 30.05 1018 10 16 0.00 0.00

Powered by AerisWeather